STARLINK-1738, 46336

Orbit data source: Space-Track

STARLINK-1738, 46336 is a payload satellite owned by SpaceX/Seattle (US) in LEO that was launched on Thu, 03 Sep 2020 UTC via an FALCON 9 launch vehicle from the Air Force Eastern Test Range (AFETR). Payload-class satellites include a variety of spacecraft equipped with specific instruments for various scientific and technological missions. These include communications satellites like Starlink; space stations such as the ISS; scientific satellites like the Hubble; Earth observation satellites from companies like Planet Labs, Umbra, and HawkEye 360; GPS; miniature CubeSats for education and research; and military/defense satellites.

Loading next visibility...
Identifier
46336, 2020-062M
Orbit
LEO
Country
Flag of USUS
Related business
Manufacturer
SpaceX/Seattle
Mission
Partially operational Commercial Communications
Bus & Motor
STARLINK, Unknown motor
Mass
260 kg wet, ~248 kg dry
Launch date (UTC)
2020-09-03 (5 years ago)
Launch vehicle
FALCON 9
Launch site
Air Force Eastern Test Range (AFETR)
Object type
Payload
Rocket body
Debris
Shape & HBR
Box + 1 Pan, 10.1 m
Radar Cross Section
13.562 m², Large (>1 m²)

Expand to show TLE details & history
Last TLE update: 14 hours ago

TLE from 14 hours ago
0 STARLINK-1738
1 46336U 20062M   25291.62352814  .00051540  00000-0  11720-2 0  9990
2 46336  53.0494 256.6170 0014447  20.0781 340.0789 15.42407011283429
Epoch: 2025-10-18T14:57Z
TLE epoch observation values (Epoch: 2025-10-18T14:57:52.831Z)
Latitude
-0.00002°
Longitude
4.79497°
Altitude
430.643 km
Speed
7.66 km/s
True Right ascension
17h 06m 28s
True Declination
0° 00' 00"
Sunlit
Object was in daylight at epoch
Visualization orbit readout
Latitude
Unknown
Longitude
Unknown
Altitude
Unknown
Speed
Unknown
Apparent Right ascension
Unknown
Apparent Declination
Unknown
Sunlit
N/A
Visualization observer readout
Local Sidereal Time
23:19:40
Azimuth
Unknown
Elevation
Unknown
Doppler factor
Unknown
Orbital elements
Apogee altitude
449.133 km
Perigee altitude
429.434 km
Semi-major axis
6,817.42 km
Eccentricity
0.00144
Inclination
53.0494°
RAAN
256.617°
Arg. of periapsis
20.0781°
True anomaly
340.0224°
Mean anomaly
340.0789°
Eccentric anomaly
340.05066°
Mean motion
3.85579 °/min
Orbital period
93.37 mins
BSTAR
0.001172
Loading maneuver chart data...
Computing Atmospheric mass density...
Loading historical data...
Loading historical data...
Loading historical data...
Loading historical data...
Loading historical data...
Loading historical data...
Loading historical data...

Documentation

Showing up to 5 results
|